www.pogodaiklimat.ru

Погода и климат >> Архив погоды >> Беларусь >> Новогрудок


ПОГОДА в Новогрудке

  • Прогноз погоды в Новогрудке
  • Монитор погоды в Новогрудке
  • Климат города

АРХИВ ПОГОДЫ в Новогрудке

Время (UTC), дата Ветер
(напр.,м/с)
 
Видим.   Явления Облачность Т
(С)
Тd
(С)
f
(%)
Тe
(С)
Тes
(С)
Комфортность P
(гПа)
Po
(гПа)
Тmin
(С)
Tmax
(С)
R
(мм)
R24
(мм)
S
(см)
03 8.12 ЮВ 5 400 м переохл. туман [диам. гололёда 4 мм] ?/? -0.8 -0.8 100 -7 -7 1003.3 969.2 -2.0 3
06 8.12 ЮВ 8-10
{10}
1600 м слабая переохл. морось (гололёд) {туман} [диам. гололёда 7 мм] 10/10 200 м
[St]
-0.1 -0.4 98 -8 -8 1001.7 967.6 -2.0 1 3
09 8.12 Ю 6
{10}
3500 м слабый дождь {морось} [диам. гололёда 7 мм] 10/8 200 м
[Frnb As op]
+0.2 -0.1 98 -7 -7 1001.7 967.6
12 8.12 Ю 5 4000 м слабый дождь {морось} 10/8 300 м
[Frnb As op]
+0.5 +0.2 98 -6 -6 1000.7 966.7
15 8.12 ЮЗ 4 4000 м слабый дождь 10/8 300 м
[Frnb As op]
+1.5 +1.2 98 -4 -4 1002.0 968.1
18 8.12 ЮЗ 4 4000 м дымка {дождь} 10/10 300 м
[St]
+2.9 +2.7 99 -2 -2 1003.0 969.4 +3.1 7 2
21 8.12 ЮЗ 4 9000 м дымка 6/6 600 м
[Sc]
+2.0 +1.2 94 -3 -3 1003.9 970.0
00 9.12 Ю 4 3000 м дымка 10/10 300 м
[St]
+0.9 +0.6 98 -5 -5 1003.5 969.5
03 9.12 Ю 4 1200 м в посл. час туман 10/10 100 м
[St]
+0.1 -0.2 98 -6 -6 1001.7 967.7 0.0 2
06 9.12 Ю 6 6000 м дымка {туман} 10/10 300 м
[St]
+0.2 -0.4 96 -7 -7 1001.5 966.5 0.0 2
09 9.12 ЮВ 6 700 м туман ?/? +0.1 +0.1 100 -7 -7 999.9 966.0
12 9.12 ЮВ 6
{10}
3200 м дымка {туман} 10/10 200 м
[St]
+0.4 -0.2 96 -6 -6 997.9 964.0
15 9.12 ЮВ 7
{10}
4500 м дымка 9/9 300 м
[Sc]
+0.7 +0.1 96 -6 -6 996.9 963.1
18 9.12 ЮВ 5 2800 м слабый дождь 10/9 200 м
[Frnb As op]
+1.0 +0.5 96 -5 -5 995.6 961.9 +1.2 1 1
21 9.12 Ю 4 2500 м слабый дождь 10/9 200 м
[Frnb As op]
+1.1 +0.8 98 -4 -4 995.1 961.4
00 10.12 Ю 4 300 м туман {дождь, морось} ?/? +1.9 +1.9 100 -3 -3 995.3 961.7
03 10.12 ЮЗ 5 800 м слабая морось {туман} туман ?/? +2.8 +2.8 100 -3 -3 995.7 962.3 +1.0 0.10
06 10.12 Ю 4 1500 м слабый дождь {морось} 10/9 200 м
[Frnb As op]
+3.0 +2.7 98 -2 -2 996.7 963.3 +1.0 4 0
09 10.12 Ю 3 1700 м слабая морось {дождь} 10/10 200 м
[St]
+3.1 +2.8 98 -1 -1 998.1 964.6
12 10.12 Ю 3 4000 м слабый дождь {морось} 10/9 300 м
[Frnb As op]
+3.0 +2.5 97 -1 -1 998.7 965.2
15 10.12 Ю 2 1200 м слабый дождь {туман} 10/9 200 м
[Frnb As op]
+2.5 +2.2 98 -1 -1 1000.5 966.7
18 10.12 ЮЗ 3 300 м слабая морось {дождь} туман ?/? +2.3 +2.3 100 -2 -2 1001.7 967.9 +3.3 2
21 10.12 З 3 1200 м слабая морось {туман} 10/10 200 м
[St]
+1.1 +0.8 98 -4 -4 1003.6 969.6
00 11.12 З 2 300 м туман {морось} ?/? +0.8 +0.8 100 -3 -3 1005.0 970.9
03 11.12 СЗ 2 300 м туман ?/? +0.5 +0.5 100 -3 -3 1006.3 972.2 +0.4
06 11.12 З 2 300 м туман ?/? +0.1 +0.1 100 -4 -4 1007.8 973.6 0.0 0.4
09 11.12 З 2 3500 м дымка {туман} 10/10 300 м
[St]
+0.3 -0.3 96 -3 -3 1010.2 975.9
12 11.12 З 2 6000 м дымка {туман} 9/9 600 м
[Sc]
+0.6 -0.5 92 -3 -3 1011.1 976.8
15 11.12 З 2 3500 м дымка 9/9 300 м
[Sc]
-0.4 -1.0 96 -4 -4 1013.3 978.7
18 11.12 СЗ 1 400 м переохл. туман [диам. гололёда 0 мм] ?/? -0.7 -0.7 100 -3 -3 1014.5 979.9 +0.6
21 11.12 С 2 300 м переохл. туман {снег} [диам. гололёда 1 мм] ?/? -0.5 -0.5 100 -5 -5 1015.6 981.0
00 12.12 СЗ 2 1800 м слабый снег {туман} [диам. гололёда 1 мм] 10/9 200 м
[Frnb As op]
-0.6 -1.0 97 -5 -5 1016.6 981.9
03 12.12 СЗ 2 4000 м в посл. час снег [диам. гололёда 1 мм] 10/10 200 м
[St]
-0.5 -1.1 96 -4 -4 1016.9 982.2 -0.8 1
06 12.12 С 3 600 м слабый снег {туман} [диам. гололёда 1 мм] ?/? -0.3 -0.3 100 -5 -5 1018.2 983.5 -0.8 2 2
09 12.12 С 3 2800 м слабый снег {туман} 10/9 100 м
[Frnb As op]
-0.1 -0.4 98 -5 -5 1019.4 984.7
12 12.12 С 3 300 м туман {снег} ?/? -0.1 -0.1 100 -5 -5 1019.5 984.8
15 12.12 С 3 1800 м дымка {туман} 10/10 200 м
[St]
-0.1 -0.4 98 -5 -5 1020.2 985.5
18 12.12 С 4 1200 м дымка {туман} 10/10 100 м
[St]
+0.1 -0.2 98 -6 -6 1020.9 986.2 +0.3 0.7 2
21 12.12 С 4 1700 м дымка {туман} 10/10 200 м
[St]
-0.2 -0.5 98 -6 -6 1021.0 986.2
00 13.12 С 6-10
{10}
8000 м слабый снег {туман} 9/9 600 м
[Sc]
-0.5 -2.3 88 -7 -7 1021.2 986.4
03 13.12 С 5
{10}
8000 м дымка {снег} 9/9 600 м
[Sc]
-1.0 -2.3 91 -7 -7 1021.0 986.1 -1.1 2
06 13.12 С 5 8000 м дымка {снег} 9/9 600 м
[Sc]
-1.2 -2.9 88 -8 -8 1020.8 985.9 -1.3 0.0 2
09 13.12 СВ 4
{11}
10 км 9/9 600 м
[Sc]
-1.3 -3.3 86 -7 -7 1021.3 986.4
12 13.12 СВ 5
{10}
10 км 9/9 600 м
[Sc]
-1.4 -3.7 84 -8 -8 1021.0 986.1
15 13.12 С 4 10 км 8/8 600 м
[Sc]
-1.4 -3.4 86 -7 -7 1021.6 986.7
18 13.12 С 4 6000 м слабый снег 9/9 600 м
[Sc]
-1.7 -2.5 94 -8 -8 1021.9 987.0 -1.2 0.5 2
21 13.12 С 4 6000 м 10 баллов -1.7 -2.3 96 -8 -8 1023.0 987.5
00 14.12 С 4 7000 м 10 баллов -1.7 -2.3 96 -8 -8 1023.0 987.5
03 14.12 СВ 3 9000 м дымка {снег} 10/10 300 м
[St]
-1.7 -2.5 94 -7 -7 1023.9 988.9 -1.8 3
06 14.12 СВ 3 8000 м дымка 10 баллов -1.6 -2.2 96 -7 -7 1025.0 989.4 -1.8 1 3
09 14.12 СВ 3 1400 м слабый снег 10/10 200 м
[St]
-1.4 -1.9 96 -7 -7 1026.6 991.5
12 14.12 СВ 3 4600 м дымка 10 баллов -1.1 -1.8 95 -6 -6 1027.0 991.4
15 14.12 С 3 4200 м 10 баллов -1.3 -1.9 96 -6 -6 1028.0 992.4
18 14.12 СВ 2 5000 м 10 баллов -1.4 -2.2 94 -5 -5 1029.0 993.3 -1.1 0.7 4
21 14.12 СВ 2 6000 м 10 баллов -1.7 -2.5 94 -6 -6 1030.0 994.3
00 15.12 СВ 2 7000 м дымка 10 баллов -1.8 -2.9 92 -6 -6 1030.0 994.2

 

Местоположение метеостанции Новогрудок (Гродненская область, Беларусь): широта 53.60 долгота 25.85 высота над уровнем моря 280 м.

В архиве по умолчанию представлена погода в Новогрудке за последнюю неделю. Архивные данные за месяц целиком и за предыдущие месяцы, начиная с января 2011 года, Вы можете получить, выбрав интересующий диапазон дат из раскрывающегося списка и нажав кнопку "Ввод!".


*Определитесь, кто Вы:
робот инопланетянин человек

Внимание! Время в таблицах - всемирное. Для получения местного времени необходимо прибавить поправку, которая в Новогрудке равна 3 ч.

Смотрите также архив погоды в соседних городах и на ближайших метеорологических станциях:

Погода в Лиде (Гродненская область, Беларусь) (48 км)
Погода в Барановичах (Брестская область, Беларусь) (53 км)
Погода в Столбцах (Минская область, Беларусь) (60 км)
Погода в Воложине (Минская область, Беларусь) (70 км)
Погода в Ошмянах (Гродненская область, Беларусь) (92 км)
Погода в Ганцевичах (Брестская область, Беларусь) (102 км)
Погода в Волковыске (Гродненская область, Беларусь) (104 км)
Погода в Ивацевичах (Брестская область, Беларусь) (105 км)
Погода в Varena (Литва) (112 км)
Погода в Гродно (Гродненская область, Беларусь) (119 км)

Пояснения к столбцам:

Ветер - указаны скорость ветра в м/с - средняя за 10 мин, порывы в срок и между сроками (в фигурных скобках) и направление, откуда дует ветер: С - северный, СВ - северо-восточный, В - восточный, ЮВ - юго-восточный, Ю - южный, ЮЗ - юго-западный, З - западный, СЗ - северо-западный.
Видимость - горизонтальная дальность видимости в метрах или километрах. При видимости от 1 до 10 км при отсутствии осадков обычно наблюдается дымка, при ухудшении видимости до 1 км и менее - туман. В сухую погоду видимость может ухудшаться дымом, пылью или мглою.
Явления - указаны атмосферные явления, наблюдавшиеся в срок или в последний час перед сроком; фигурными скобками обозначены явления, наблюдавшиеся между сроками (за 1-3 часа до срока); квадратными скобками обозначены град или гололедные отложения с указанием их диаметра в мм.
Облачность - указаны через наклонную черту общая и нижняя облачность в баллах и высота нижней границы облаков в метрах; квадратными скобками обозначены формы облаков: Ci - перистые, Cs - перисто-слоистые, Cc - перисто-кучевые, Ac - высококучевые, As - высокослоистые, Sc - слоисто-кучевые, Ns - слоисто-дождевые, Cu - кучевые, Cb - кучево-дождевые. Подробнее классификацию облаков см. в Атласе облаков (PDF).
T - Температура воздуха - температура, измеренная на высоте 2 м над землей.
Td - Температура точки росы - температура, при понижении до которой содержащийся в воздухе водяной пар достигнет насыщения.
f - Относительная влажность воздуха - влажноcть воздуха, измеренная на высоте 2 м над землей.
Te - Эффективная температура - температура, которую ощущает одетый по сезону человек в тени. Характеристика душности погоды. При расчете учитывается влияние влажности воздуха и скорости ветра на теплоощущения человека.
Tes - Эффективная температура на солнце - температура, которую ощущает человек, с поправкой на солнечный нагрев. Характеристика знойности погоды. Зависит от высоты солнца над горизонтом, облачности и скорости ветра. Ночью, в пасмурную погоду, а также при ветре 12 м/с и более поправка равна нулю.
P - Атмосферное давление - приведенное к уровню моря атмосферное давление.
Po - Атмосферное давление - измеренное на уровне метеостанции атмосферное давление.
Tmin - Минимальная температура - минимум температуры воздуха на высоте 2 м над землей.
Tmax - Максимальная температура - максимум температуры воздуха на высоте 2 м над землей.
R - Количество осадков - Количество выпавших осадков за период времени, мм. При наведении курсора мыши на число - период времени, за который выпало указанное количество осадков.
R24 - Количество осадков - Количество выпавших осадков за 24 часа, мм.
S - Снежный покров - Высота снежного покрова, см. При наведении курсора мыши на число - состояние снежного покрова и степень покрытия местности в баллах.